• In Belgium
  • List of Countries
  • For 7 days
  • Water Temperature
  • Satellite Maps
  • Weather Map
  • Weather Widgets
  • user-avatar
    Login

    Hourly Weather Boussu

    Today, 21 October, Sunday

    Time Temperature Precipitation Wind Pressure Humidity
    00:00 +9°C° 0 mm 1 mps 768 mmHg 78%
    01:00 +9°C° 0 mm 1 mps 768 mmHg 78%
    02:00 +8°C° 0 mm 1 mps 767 mmHg 78%
    03:00 +8°C° 0 mm 1 mps 767 mmHg 78%
    04:00 +8°C° 0 mm 1 mps 767 mmHg 79%
    05:00 +8°C° 0 mm 1 mps 767 mmHg 79%
    06:00 +8°C° 0 mm 1 mps 767 mmHg 79%
    07:00 +10°C° 0 mm 1 mps 767 mmHg 74%
    08:00 +11°C° 0 mm 1 mps 767 mmHg 68%
    09:00 +13°C° 0 mm 1 mps 767 mmHg 63%
    10:00 +14°C° 0 mm 1 mps 766 mmHg 59%
    11:00 +16°C° 0 mm 1 mps 766 mmHg 55%
    12:00 +18°C° 0 mm 1 mps 766 mmHg 52%
    13:00 +18°C° 0 mm 1 mps 766 mmHg 53%
    14:00 +19°C° 0 mm 1 mps 765 mmHg 54%
    15:00 +19°C° 0 mm 1 mps 765 mmHg 56%
    16:00 +16°C° 0 mm 1 mps 765 mmHg 62%
    17:00 +14°C° 0 mm 1 mps 765 mmHg 68%
    18:00 +13°C° 0 mm 1 mps 765 mmHg 73%
    19:00 +12°C° 0 mm 1 mps 765 mmHg 75%
    20:00 +12°C° 0 mm 1 mps 766 mmHg 77%
    21:00 +12°C° 0 mm 1 mps 766 mmHg 78%
    22:00 +11°C° 0 mm 1 mps 766 mmHg 80%
    23:00 +11°C° 0 mm 1 mps 766 mmHg 82%

    Tomorrow, 22 October, Monday

    Time Temperature Precipitation Wind Pressure Humidity
    00:00 +11°C° 0 mm 1 mps 766 mmHg 84%
    01:00 +11°C° 0 mm 1 mps 766 mmHg 86%
    02:00 +11°C° 0 mm 1 mps 766 mmHg 87%
    03:00 +11°C° 0 mm 1 mps 766 mmHg 89%
    04:00 +10°C° 0.1 mm 2 mps 767 mmHg 89%
    05:00 +11°C° 0.1 mm 3 mps 767 mmHg 89%
    06:00 +11°C° 0.1 mm 4 mps 767 mmHg 90%
    07:00 +12°C° 0.2 mm 5 mps 768 mmHg 88%
    08:00 +12°C° 0.2 mm 5 mps 768 mmHg 87%
    09:00 +11°C° 0.2 mm 6 mps 769 mmHg 85%
    10:00 +11°C° 0 mm 6 mps 769 mmHg 80%
    11:00 +13°C° 0 mm 6 mps 770 mmHg 76%
    12:00 +13°C° 0 mm 6 mps 770 mmHg 71%
    13:00 +13°C° 0 mm 6 mps 770 mmHg 69%
    14:00 +13°C° 0 mm 6 mps 770 mmHg 67%
    15:00 +13°C° 0 mm 5 mps 770 mmHg 65%
    16:00 +12°C° 0 mm 5 mps 771 mmHg 67%
    17:00 +10°C° 0 mm 4 mps 771 mmHg 70%
    18:00 +8°C° 0 mm 4 mps 772 mmHg 73%
    19:00 +8°C° 0 mm 3 mps 772 mmHg 74%
    20:00 +8°C° 0 mm 3 mps 772 mmHg 76%
    21:00 +7°C° 0 mm 2 mps 773 mmHg 77%
    22:00 +7°C° 0 mm 2 mps 773 mmHg 78%
    23:00 +7°C° 0 mm 1 mps 773 mmHg 80%

    Day after tomorrow, 23 October, Tuesday

    Time Temperature Precipitation Wind Pressure Humidity
    00:00 +7°C° 0 mm 1 mps 772 mmHg 81%
    01:00 +7°C° 0 mm 1 mps 772 mmHg 81%
    02:00 +7°C° 0 mm 1 mps 772 mmHg 82%
    03:00 +6°C° 0 mm 2 mps 771 mmHg 82%
    04:00 +6°C° 0 mm 2 mps 771 mmHg 83%
    05:00 +6°C° 0 mm 2 mps 771 mmHg 84%
    06:00 +6°C° 0 mm 2 mps 770 mmHg 85%
    07:00 +7°C° 0 mm 3 mps 770 mmHg 81%
    08:00 +8°C° 0 mm 4 mps 770 mmHg 76%
    09:00 +10°C° 0 mm 5 mps 770 mmHg 71%
    10:00 +12°C° 0 mm 5 mps 769 mmHg 69%
    11:00 +13°C° 0 mm 5 mps 769 mmHg 66%
    12:00 +14°C° 0 mm 6 mps 768 mmHg 64%
    13:00 +14°C° 0 mm 5 mps 768 mmHg 64%
    14:00 +14°C° 0 mm 5 mps 767 mmHg 65%
    15:00 +14°C° 0 mm 5 mps 767 mmHg 66%
    16:00 +13°C° 0 mm 5 mps 767 mmHg 71%
    17:00 +11°C° 0 mm 4 mps 767 mmHg 76%
    18:00 +10°C° 0 mm 3 mps 767 mmHg 81%
    19:00 +10°C° 0 mm 3 mps 767 mmHg 81%
    20:00 +11°C° 0 mm 3 mps 767 mmHg 81%
    21:00 +11°C° 0 mm 3 mps 767 mmHg 81%
    22:00 +11°C° 0 mm 3 mps 767 mmHg 85%
    23:00 +11°C° 0 mm 3 mps 767 mmHg 88%

    24 October, Wednesday

    Time Temperature Precipitation Wind Pressure Humidity
    00:00 +10°C° 0 mm 3 mps 767 mmHg 92%
    01:00 +10°C° 0 mm 3 mps 767 mmHg 93%
    02:00 +11°C° 0 mm 3 mps 766 mmHg 94%
    03:00 +11°C° 0 mm 3 mps 766 mmHg 95%
    04:00 +11°C° 0 mm 3 mps 766 mmHg 95%
    05:00 +11°C° 0 mm 3 mps 766 mmHg 95%
    06:00 +12°C° 0 mm 3 mps 766 mmHg 95%
    07:00 +13°C° 0 mm 3 mps 766 mmHg 92%
    08:00 +13°C° 0 mm 3 mps 767 mmHg 90%
    09:00 +14°C° 0 mm 4 mps 767 mmHg 88%
    10:00 +15°C° 0 mm 4 mps 767 mmHg 86%
    11:00 +15°C° 0 mm 4 mps 767 mmHg 85%
    12:00 +17°C° 0 mm 4 mps 767 mmHg 83%
    13:00 +17°C° 0 mm 4 mps 767 mmHg 83%
    14:00 +17°C° 0 mm 4 mps 766 mmHg 84%
    15:00 +17°C° 0 mm 3 mps 766 mmHg 84%
    16:00 +16°C° 0 mm 3 mps 766 mmHg 87%
    17:00 +14°C° 0 mm 3 mps 766 mmHg 90%
    18:00 +15°C° 0 mm 2 mps 766 mmHg 93%
    19:00 +14°C° 0 mm 2 mps 766 mmHg 94%
    20:00 +14°C° 0 mm 2 mps 766 mmHg 94%
    21:00 +14°C° 0 mm 2 mps 766 mmHg 95%
    22:00 +14°C° 0 mm 2 mps 766 mmHg 95%
    23:00 +14°C° 0 mm 2 mps 766 mmHg 95%

    25 October, Thursday

    Time Temperature Precipitation Wind Pressure Humidity
    00:00 +14°C° 0 mm 2 mps 765 mmHg 95%
    01:00 +13°C° 0 mm 2 mps 765 mmHg 95%
    02:00 +13°C° 0 mm 2 mps 765 mmHg 96%
    03:00 +13°C° 0 mm 2 mps 764 mmHg 96%
    04:00 +13°C° 0 mm 2 mps 764 mmHg 96%
    05:00 +12°C° 0 mm 2 mps 764 mmHg 97%
    06:00 +12°C° 0 mm 2 mps 763 mmHg 97%
    07:00 +11°C° 0 mm 3 mps 763 mmHg 92%
    08:00 +12°C° 0 mm 3 mps 763 mmHg 88%
    09:00 +13°C° 0 mm 3 mps 763 mmHg 83%
    10:00 +13°C° 0 mm 3 mps 763 mmHg 77%
    11:00 +14°C° 0 mm 3 mps 762 mmHg 71%
    12:00 +16°C° 0 mm 3 mps 762 mmHg 66%
    13:00 +16°C° 0 mm 3 mps 761 mmHg 65%
    14:00 +16°C° 0 mm 2 mps 761 mmHg 64%
    15:00 +15°C° 0 mm 2 mps 760 mmHg 63%
    16:00 +14°C° 0 mm 2 mps 760 mmHg 70%
    17:00 +12°C° 0 mm 2 mps 760 mmHg 76%
    18:00 +11°C° 0 mm 1 mps 760 mmHg 83%
    19:00 +10°C° 0 mm 1 mps 759 mmHg 85%
    20:00 +10°C° 0 mm 1 mps 759 mmHg 86%
    21:00 +9°C° 0 mm 1 mps 759 mmHg 88%
    22:00 +9°C° 0 mm 1 mps 758 mmHg 89%
    23:00 +8°C° 0 mm 1 mps 757 mmHg 89%

    26 October, Friday

    Time Temperature Precipitation Wind Pressure Humidity
    00:00 +8°C° 0 mm 1 mps 757 mmHg 90%
    01:00 +7°C° 0 mm 2 mps 756 mmHg 90%
    02:00 +7°C° 0 mm 2 mps 756 mmHg 90%
    03:00 +7°C° 0 mm 2 mps 755 mmHg 91%
    04:00 +7°C° 0 mm 2 mps 755 mmHg 91%
    05:00 +7°C° 0 mm 2 mps 754 mmHg 90%
    06:00 +7°C° 0 mm 2 mps 754 mmHg 90%
    07:00 +8°C° 0 mm 2 mps 753 mmHg 87%
    08:00 +9°C° 0 mm 2 mps 753 mmHg 84%
    09:00 +10°C° 0 mm 2 mps 753 mmHg 81%
    10:00 +12°C° 0 mm 2 mps 752 mmHg 78%
    11:00 +13°C° 0 mm 2 mps 752 mmHg 76%
    12:00 +13°C° 0 mm 2 mps 751 mmHg 74%
    13:00 +13°C° 0.2 mm 2 mps 751 mmHg 77%
    14:00 +11°C° 0.2 mm 3 mps 750 mmHg 80%
    15:00 +11°C° 0.2 mm 3 mps 750 mmHg 83%
    16:00 +10°C° 0.3 mm 3 mps 750 mmHg 86%
    17:00 +9°C° 0.3 mm 2 mps 750 mmHg 89%
    18:00 +8°C° 0.3 mm 2 mps 750 mmHg 93%
    19:00 +8°C° 0.2 mm 2 mps 750 mmHg 93%
    20:00 +8°C° 0.2 mm 2 mps 750 mmHg 94%
    21:00 +8°C° 0.2 mm 2 mps 749 mmHg 94%
    22:00 +8°C° 0.5 mm 2 mps 749 mmHg 93%
    23:00 +8°C° 0.5 mm 3 mps 749 mmHg 92%
    Show more